Regional Weather Roundup
Issued by NWS Jackson, KY

Home | Current Version | Previous Version | Graphics & Text | Print | Product List | Glossary On
Versions: 1 2 3 4 5 6 7 8 9 10 11 12 13 14 15 16 17 18 19 20 21 22 23 24 25 26 27
000
ASUS43 KJKL 172110
RWRJKL

EAST KENTUCKY HOURLY WEATHER ROUNDUP
NATIONAL WEATHER SERVICE JACKSON KY
400 PM EST SUN DEC 17 2017

NOTE: "FAIR" INDICATES FEW OR NO CLOUDS BELOW 12,000 FEET WITH
NO SIGNIFICANT WEATHER AND/OR OBSTRUCTIONS TO VISIBILITY.

* THESE REPORTS ARE NOT UNDER NWS QUALITY CONTROL AND MAY NOT
  REPORT WEATHER SUCH AS PRECIPITATION AND FOG.

KYZ079-080-083-085-087-088-110-112-115-119-120-172200
...EASTERN KENTUCKY...

CITY           SKY/WX    TMP DP  RH WIND       PRES   REMARKS
JACKSON        CLOUDY    40  36  86 CALM      30.14F
LONDON         CLOUDY    43  34  70 CALM      30.14S
SOMERSET*      CLOUDY    43  34  70 S6        30.15S
MONTICELLO*    CLOUDY    45  36  70 E8        30.14F
WILLIAMSBURG*  CLOUDY    43  36  75 SE6       30.14S
MIDDLESBORO*   CLOUDY    43  34  70 S5        30.17R
HARLAN APT*    CLOUDY    41  34  75 CALM      30.16R
PIKE CO APT*   CLOUDY    40  34  80 CALM      30.15R
BIG SANDY APT* CLOUDY    41  38  90 CALM      30.16S
MOREHEAD APT*  LGT RAIN  41  36  81 S5        30.15F
$$

KYZ035-036-041-042-044-050-067-078-099-172200
...CENTRAL KENTUCKY...

CITY           SKY/WX    TMP DP  RH WIND       PRES   REMARKS
MT STERLING*   LGT RAIN  41  37  87 CALM      30.14F
FLEMING/MASON* CLOUDY    43  35  74 S6        30.13F
DANVILLE*      CLOUDY    43  36  75 S10       30.12F
LEXINGTON      CLOUDY    42  38  85 S5        30.11F
FRANKFORT      CLOUDY    43  36  76 SW6       30.11S
LOUISVILLE     CLOUDY    46  37  71 S7        30.12R
LEBANON*       CLOUDY    43  37  81 S3        30.11S
GLASGOW*       CLOUDY    44  39  81 S5        30.10S
BOWLING GREEN  CLOUDY    45  42  89 SE5       30.12R
$$

KYZ091>093-OHZ055-061-077-WVZ005-015-034-035-042-172200
...SOUTHERN OHIO/WEST VIRGINIA...

CITY           SKY/WX    TMP DP  RH WIND       PRES   REMARKS
COVINGTON      CLOUDY    45  33  63 S5        30.09S
COLUMBUS       LGT RAIN  42  34  73 CALM      30.11F
DAYTON         CLOUDY    41  38  89 SW7       30.09F
WILMINGTON     CLOUDY    43  33  68 S5        30.10F
HUNTINGTON     CLOUDY    44  31  60 S6        30.15F
CHARLESTON     LGT RAIN  42  35  76 S6        30.16R
PINEVILLE*     MIX PCPN  38  37  94 MISG      30.21R
BECKLEY        LGT RAIN  38  31  76 CALM      30.13R
BLUEFIELD      LGT RAIN  38  30  73 VRB3      30.12S
LOGAN CO APT*  CLOUDY    41  34  75 CALM      30.15R
$$

VAZ002-007-008-TNZ017-027-036-066-071-172200
...SOUTHWEST VIRGINIA/EAST TENNESSEE...

CITY           SKY/WX    TMP DP  RH WIND       PRES   REMARKS
WISE*          CLOUDY    41  34  75 W3        30.12R
JONESVILLE*    CLOUDY    41  39  93 CALM      30.19R
ABINGDON*      CLOUDY    45  34  65 CALM      30.13S
BRISTOL        CLOUDY    41  35  79 CALM      30.15F
MORRISTOWN*    CLOUDY    41  39  93 CALM      30.15S
SEVIERVILLE*   CLOUDY    41  39  93 N6        30.15S FOG
KNOXVILLE      LGT RAIN  42  40  92 NW6       30.15R
LAFOLLETTE*    CLOUDY    43  36  75 NE5       30.19R
OAK RIDGE      CLOUDY    43  39  86 CALM      30.18S
CROSSVILLE     CLOUDY    43  37  79 S8        30.11S
NASHVILLE      PTSUNNY   47  44  90 S8        30.11S FOG
$$

...KEY TO REMARKS...
VSB - VISIBILITY IN MILES
WCI - WIND CHILL INDEX
HX  - HEAT INDEX

$$




USA.gov is the U.S. government's official web portal to all federal, state and local government web resources and services.